Location: Unspecified
(47.8330°N, 0.0000°E)
Time: 08:57:19
(UTC+00:00)

VELOX 1 - Visible Passes

Search period start: 25 August 2019 00:00
Search period end: 04 September 2019 00:00
Orbit: 628 x 644 km, 98.2° (Epoch: 25 August)

Date Brightness Start Highest point End Pass type
(mag) Time Alt. Az. Time Alt. Az. Time Alt. Az.
25 Aug ? 01:30:26 38° NNW 01:30:26 38° NNW 01:33:12 10° NNW visible
26 Aug ? 00:15:38 23° NE 00:15:38 23° NE 00:18:33 10° N visible
26 Aug ? 01:53:09 27° NW 01:53:09 27° NW 01:55:26 10° NNW visible
27 Aug ? 00:38:21 31° NE 00:38:21 31° NE 00:41:17 10° N visible
27 Aug ? 02:15:53 18° NW 02:15:53 18° NW 02:17:26 10° NW visible
28 Aug ? 01:01:04 36° N 01:01:04 36° N 01:03:51 10° N visible
28 Aug ? 02:38:35 12° WNW 02:38:35 12° WNW 02:39:03 10° NW visible
28 Aug ? 23:46:17 13° NE 23:46:17 13° NE 23:48:12 10° NNE visible
29 Aug ? 01:23:47 33° NNW 01:23:47 33° NNW 01:26:16 10° NNW visible
30 Aug ? 00:09:00 19° NE 00:09:00 19° NE 00:11:25 10° NNE visible
30 Aug ? 01:46:31 25° NW 01:46:31 25° NW 01:48:33 10° NNW visible
31 Aug ? 00:31:43 26° NNE 00:31:43 26° NNE 00:34:14 10° N visible
31 Aug ? 02:09:14 18° NW 02:09:14 18° NW 02:10:37 10° NNW visible
01 Sep ? 00:54:27 30° NNE 00:54:27 30° NNE 00:56:51 10° N visible
01 Sep ? 02:31:58 12° NW 02:31:58 12° NW 02:32:25 10° NW visible
01 Sep ? 23:39:39 11° NE 23:39:39 11° NE 23:40:44 10° NE visible
02 Sep ? 01:17:10 28° N 01:17:10 28° N 01:19:19 10° NNW visible
03 Sep ? 00:02:23 16° NE 00:02:23 16° NE 00:04:14 10° NNE visible
03 Sep ? 01:39:53 23° NNW 01:39:53 23° NNW 01:41:38 10° NNW visible
